Regional Weather Roundup
Issued by NWS Midland/Odessa, TX

Skip options and go directly to product.
Home | Oldest Version | Previous Version | Current Version | All | Graphics & Text | Save Text | Print | Product List | Glossary On

Skip product version selection by date and time.   
070
ASUS44 KMAF 290910
RWRMAF
MIDLAND AREA WEATHER ROUNDUP
NATIONAL WEATHER SERVICE MIDLAND TX
400 AM CDT WED JUN 29 2016

...IN SOUTHWEST TEXAS AND SOUTHEAST NEW MEXICO...

CITY           SKY/WX    TMP DP  RH WIND       PRES   REMARKS
ALPINE         CLOUDY    64  60  88 W3        30.27F
ANDREWS        FAIR      67  66  95 CALM      30.17F
ARTESIA        CLEAR     70  59  68 W7        30.19S
BIG SPRING     CLEAR     69  65  86 N5        30.15F
CARLSBAD       PTCLDY    68  61  78 SW5       30.15F
DRYDEN           N/A     74  65  73 N3        30.06F
FORT STOCKTON  MOCLDY    72  63  73 S9        30.12F
GUAD PASS      CLOUDY    65  60  84 NE16      30.30F
HOBBS          PTCLDY    66  63  88 E3        30.21F
MARFA          CLEAR    N/A N/A N/A NE5       30.25F
MIDLAND AIRPK  CLEAR     71  66  85 CALM      30.14F
MIDLAND INTL   CLEAR     71  66  84 CALM      30.13F
ODESSA         CLEAR     70  65  84 NE3       30.15F
PECOS          CLOUDY    73  66  78 E6        30.12F
PRESIDIO       FAIR      74  64  71 NE8       30.11S
SEMINOLE       CLEAR     65  61  85 CALM      30.20S
SNYDER           N/A     66  63  89 SW3       30.12S
WINK           CLEAR     72  66  81 E3        30.12F
$$
...OTHER STATIONS IN TEXAS...

CITY           SKY/WX    TMP DP  RH WIND       PRES   REMARKS
ABILENE        MOCLDY    70  69  97 SW6       30.04F
AMARILLO       CLEAR     67  63  87 S17       30.19F
AUSTIN         PTCLDY    72  72 100 W3        29.98F
BROWNSVILLE    PTCLDY    77  75  93 CALM      29.95F
CORPUS CHRISTI CLOUDY    81  74  79 N8        29.96R
DALLAS FTW     PTCLDY    77  69  76 CALM      30.00S
DEL RIO        CLEAR     74  72  93 CALM      30.03S
EL PASO        MOCLDY    73  63  70 N6        30.18S
HOUSTON INT    PTCLDY    74  72  93 CALM      29.95F
LUBBOCK        PTCLDY    66  58  75 SW5       30.18F
SAN ANGELO     CLEAR     70  68  93 CALM      30.07F
SAN ANTONIO    PTCLDY    73  69  87 CALM      30.01F
WACO           MOCLDY    71  69  93 N6        29.99R
WICHITA FALLS  NOT AVBL
$$
...OTHER LOCATIONS IN NEW MEXICO...

CITY           SKY/WX    TMP DP  RH WIND       PRES   REMARKS
ALAMAGORDO     PTCLDY    64  57  77 E5        30.23S
ALBUQUERQUE    MOCLDY    70  55  59 E6        30.30R
CANNON AFB     CLEAR     67  61  80 SW5       30.25S
CLOVIS         CLEAR     64  57  77 SW7       30.24S
HOLLOMAN AFB   PTCLDY    67  56  68 N8        30.20F
ROSWELL        CLEAR     70  54  56 E5        30.19S
RUIDOSO          N/A     59  50  72 CALM      30.42F
SANTA FE       CLOUDY    62  49  62 N10       30.36R
TRUTH OR CONSE CLOUDY    67  57  70 E5        30.24F
TUCUMCARI      CLEAR     68  57  68 S8        30.19F
$$

USA.gov is the U.S. government's official web portal to all federal, state and local government web resources and services.